Погода в Джалалабаде

Погода в Джалалабаде : погода сейчас, прогноз погоды и архив. Всё, что Вы хотите узнать о погоде в Джалалабаде!

Поиск расширенной информации на нашем сайте:

Другие новости

Новости СМИ2

Главная страница сайта

Новости сайта

02.10.2013

Напоминаем, что на нашем новом сайте вы можете получить высокодетализированные прогнозы погоды по пунктам России, СНГ и мира (включающие важные для авиации метеовеличины, такие как направление и скорость ветра, видимость, явления погоды, количество и форма облачности, нижняя и верхняя граница облачности), а также ознакомиться с разнообразными материалами по авиационной метеорологии и подборкой полезных ссылок на эту тему.

Сайт Метеоцентр.Азия посвящён разработке технологий оптимизации авиаметеорологического обслуживания, включая проектирование и перспективное создание нескольких автоматизированных авиаметеорологических систем:
- система выпуска высокодетальных прогностических карт явлений погоды для нижнего воздушного пространства по России и ближнему зарубежью;
- система верификации прогнозов TAF (выпускаемых синоптиками официальных АМСГ РФ и ближнего зарубежья) и AUTOTAF (выпускаемых сайтом Метеоцентр.Азия) - выявление ошибок, онлайн-сопоставление с фактической погодой METAR, автоматическое внесение коррективов в прогнозы при резком отклонении фактической погоды от прогноза, подсчёт оправдываемости прогнозов по элементам и в целом;
- система обработки, анализа и отображения авиаметеорологической информации для применения провайдерами метеорологической информации.

Рекомендуем: Смотрите описание шкода на сайте.

Погода в Джалалабаде - сегодня

Время (UTC), дата Ветер
(°,м/с) 
Видим.   Явления Облачность Т
(°С)
Тd
(°С)
f(%) Тe
(°С)
Pmin
(гПа)
dP
(гПа)
Po
(мм)
O2
(г/м3)
Тmin Tmax R s Состояние
почвы
21 23.04.17 020 (С) н/о    ясно 
+12.3 +7.1 71 +13  1020.9  -1.8  699  268           
00 24.04.17 050 (СВ) 20000 м    ясно 
+10.5 +6.2 75 +11  1020.4  -1  699  270           
03 24.04.17 020 (С) 20000 м    ясно 
+16.8 +8.6 58 +19  1019.3  0.9  699  263           
06 24.04.17 240 (ЮЗ) 20000 м    ясно 
+22 +4.8 33 +22  1016.2  -1.5  698  259  +10.5         
09 24.04.17 280 (З) 20000 м    ясно 
+25.4 +6.4 30 +25  1012.4  -2.6  696  255           
12 24.04.17 290 (З) 20000 м    ясно 
+25.9 +8.1 32 +26  1011  -1  696  255           
15 24.04.17 150 (ЮВ) н/о    ясно 
+18.8 +10.9 60 +24  1012.8  -0.4  695  259    +27       
18 24.04.17 020 (С) н/о    ясно 
+15.6 +7.1 57 +16  1014.1  0.3  695  263    +27       
21 24.04.17 010 (С) н/о    ясно 
+12.4 +6.5 67 +14  1014.5  -0.6  694  266           
00 25.04.17 040 (СВ) 20000 м    ясно 
+10.8 +5.3 69 +12  1014.5  -0.4  695  268           
03 25.04.17 020 (С) 20000 м    ясно 
+18.8 +10.6 59 +24  1014.7  2.7  696  260           
06 25.04.17 070 (В) 20000 м    ясно 
+25.2 +5.2 28 +25  1011.9  -1.2  695  255  +10.8         
09 25.04.17 170 (Ю) 20000 м    ясно 
+28.8 +9.7 30 +31  1009.2  -1.4  694  251           
12 25.04.17 280 (З) 20000 м    ясно 
+28.5 +8.7 29 +29  1009.2  -0.7  695  252           
15 25.04.17 020 (С) н/о    ясно 
+20.8 +12.7 60 +28  1010.8  694  257    +29.8       
18 25.04.17 060 (СВ) н/о    ясно 
+18.2 +4.8 41 +19  1021.7  1.4  701  263    +29.8       
21 25.04.17 010 (С) н/о    ясно 
+15.8 +7.2 57 +17  1024.7  -0.2  702  265           
00 26.04.17 010 (С) н/о    ясно 
+13.2 +7.8 70 +14  1014.8  0.7  696  266           
03 26.04.17 040 (СВ) 20000 м    ясно 
+19.2 +6.4 43 +21  1013.3  -0.9  695  260           
06 26.04.17 180 (Ю) 20000 м    ясно 
+26.5 +5.6 26 +27  1011.2  -0.4  695  254  +14.2         
09 26.04.17 330 (СЗ) 20000 м    ясно 
+27.8 +8.1 29 +28  1010.2  -0.5  695  252           
12 26.04.17 310 (СЗ) 20000 м    ясно 
+27.5 +10 33 +30  1010  -0.3  695  253           
15 26.04.17 310 (СЗ) н/о    ясно 
+21 +13.1 61 +28  1013.2  1.3  695  257    +28.4       
18 26.04.17 020 (С) н/о    ясно 
+16.6 +12.1 75 +24  1016.5  1.8  697  262    +28.4       
21 26.04.17 010 (С) н/о    ясно 
+15.4 +9.8 69 +18  1017.6  0.6  697  263           
Время (UTC), дата Ветер
(°,м/с) 
Видим.   Явления Облачность Т
(°С)
Тd
(°С)
f(%) Тe
(°С)
Pmin
(гПа)
dP
(гПа)
Po
(мм)
O2
(г/м3)
Тmin Tmax R s Состояние
почвы

Для получения пояснительной информации подведите курсор к названию столбца.

ПОГОДА в Джалалабаде - архив

Всё, что Вы хотите узнать о погоде в Джалалабаде - удобно и подробно!

Выберите нужную дату (начиная с 1 января 2015* года) и нажмите кнопку "Найти".
Будут отображены архивные сводки погоды по пункту Джалалабад, начиная с указанной даты.


Отображать данные в формате CSV (для использования в таблицах Excel)


Внимание! Наш архив погоды предназначен исключительно для личного некоммерческого использования в познавательных целях. Если Вам необходимы официальные справки о состоянии погоды (для производственных, юридических, коммерческих и т.п. целей), обращайтесь в органы Росгидромета.

*Примечание: данная дата относится к архиву по метеостанциям СССР (Россия, СНГ, Балтия).
Архив по метеостанциям Зарубежной Европы и Азии (кроме Китая) хранится 10 дней, по другим регионам земного шара (Китай, Африка, Америка, Австралия, Океания) - 1 день.

Джалалабад - район местоположения метеостанции


Название, широта, долгота, высота метеостанции:
Джалалабад 40.9°ш. 72.9°д. 765 м над ур. моря [Кыргызстан]

Дополнительная информация

В oтличие oт бoльшинства пoгoдных сайтoв мы публикуем пoдрoбную метеoинфoрмацию в детальнoм прoфессиoнальнoм фoрмате.

Характеристики температуры и влажнoсти вoздуха измеряются на высoте 2 м в тени вдали oт зданий и деревьев.
Скoрoсть ветра измеряется на высoте 10 м (на урoвне рoста челoвека скoрoсть ветра ниже в 1.5-2 раза). Если метеoстанция нахoдится в гoрoде или в лесу, тo скoрoсть ветра занижена на 2-4 м/с пo сравнению с oткрытым местoм. Скoрoсть ветра над акватoриями крупных рек и oзёр, а также на вершинах хoлмoв на 2-5 м/с выше, чем в oбычных услoвиях.
Атмoсфернoе давление в разных тoчках местнoсти мoжет значительнo oтличаться oт давления на метеoстанции, в зависимoсти oт услoвий рельефа (при пoдъёме на 10 м давление пoнижается примернo на 1 мм рт.ст.).